TimeEST,TemperatureF,Dew PointF,Humidity,Sea Level PressureIn,VisibilityMPH,Wind Direction,Wind SpeedMPH,Gust SpeedMPH,PrecipitationIn,Events,Conditions,WindDirDegrees,DateUTC
12:15 AM,62.4,59.5,90,30.11,10.0,South,3.5,-,N/A,,Clear,180,2013-01-13 05:15:00
12:35 AM,62.2,59.9,92,30.10,10.0,South,4.6,-,N/A,,Clear,170,2013-01-13 05:35:00
12:55 AM,62.2,59.7,91,30.10,10.0,South,4.6,-,N/A,,Clear,170,2013-01-13 05:55:00
1:15 AM,62.1,59.5,91,30.10,10.0,South,4.6,-,N/A,,Clear,190,2013-01-13 06:15:00
1:35 AM,61.7,59.4,92,30.11,10.0,South,3.5,-,N/A,,Clear,190,2013-01-13 06:35:00
1:55 AM,61.5,59.9,94,30.11,10.0,SSW,5.8,-,N/A,,Clear,200,2013-01-13 06:55:00
2:15 AM,60.4,59.2,96,30.11,10.0,South,3.5,-,N/A,,Clear,180,2013-01-13 07:15:00
2:35 AM,60.6,59.5,96,30.11,10.0,SSW,4.6,-,N/A,,Clear,200,2013-01-13 07:35:00
2:55 AM,60.6,59.7,97,30.11,10.0,South,3.5,-,N/A,,Clear,190,2013-01-13 07:55:00
3:15 AM,59.9,59.4,98,30.10,7.0,South,3.5,-,N/A,,Clear,180,2013-01-13 08:15:00
3:35 AM,59.4,58.8,98,30.10,7.0,Calm,Calm,-,N/A,,Clear,0,2013-01-13 08:35:00
3:55 AM,58.6,58.6,100,30.10,2.0,Calm,Calm,-,N/A,,Clear,0,2013-01-13 08:55:00
4:15 AM,59.0,59.0,100,30.10,4.0,Calm,Calm,-,N/A,,Clear,0,2013-01-13 09:15:00
4:35 AM,58.5,58.5,100,30.10,4.0,South,3.5,-,N/A,,Clear,190,2013-01-13 09:35:00
4:55 AM,58.1,58.1,100,30.10,2.0,South,3.5,-,N/A,,Mist,180,2013-01-13 09:55:00
5:15 AM,58.3,58.3,100,30.10,3.0,South,3.5,-,N/A,,Overcast,180,2013-01-13 10:15:00
5:35 AM,58.8,58.8,100,30.09,4.0,SSE,4.6,-,N/A,,Mostly Cloudy,160,2013-01-13 10:35:00
5:55 AM,58.3,58.3,100,30.11,3.0,South,3.5,-,N/A,,Scattered Clouds,190,2013-01-13 10:55:00
6:15 AM,58.3,58.3,100,30.11,2.0,SSE,4.6,-,N/A,,Clear,160,2013-01-13 11:15:00
6:35 AM,58.3,58.3,100,30.11,4.0,South,3.5,-,N/A,,Clear,170,2013-01-13 11:35:00
6:55 AM,57.6,57.6,100,30.12,1.8,South,3.5,-,N/A,,Mist,180,2013-01-13 11:55:00
7:15 AM,57.6,57.6,100,30.12,1.2,Calm,Calm,-,N/A,,Mist,0,2013-01-13 12:15:00
7:35 AM,56.8,56.8,100,30.14,0.2,SSW,3.5,-,N/A,Fog,Fog,200,2013-01-13 12:35:00
7:55 AM,57.6,57.6,100,30.13,2.5,South,4.6,-,N/A,,Clear,170,2013-01-13 12:55:00
8:15 AM,58.1,58.1,100,30.15,3.0,Calm,Calm,-,N/A,,Clear,0,2013-01-13 13:15:00
8:35 AM,59.4,59.4,100,30.14,5.0,South,3.5,-,N/A,,Clear,180,2013-01-13 13:35:00
8:55 AM,60.3,60.3,100,30.15,7.0,SSW,4.6,-,N/A,,Clear,210,2013-01-13 13:55:00
9:15 AM,61.7,61.0,97,30.15,10.0,SSW,5.8,-,N/A,,Clear,210,2013-01-13 14:15:00
9:35 AM,63.3,61.0,92,30.15,10.0,SSW,6.9,-,N/A,,Clear,210,2013-01-13 14:35:00
9:55 AM,64.4,61.3,90,30.16,10.0,SW,6.9,-,N/A,,Clear,230,2013-01-13 14:55:00
10:15 AM,65.8,61.7,86,30.16,10.0,SW,6.9,-,N/A,,Clear,220,2013-01-13 15:15:00
10:35 AM,66.2,61.7,85,30.15,10.0,SW,6.9,-,N/A,,Clear,220,2013-01-13 15:35:00
10:55 AM,67.1,60.6,80,30.14,10.0,SW,10.4,-,N/A,,Clear,220,2013-01-13 15:55:00
11:15 AM,69.8,60.8,73,30.13,10.0,SW,10.4,16.1,N/A,,Clear,230,2013-01-13 16:15:00
11:35 AM,71.6,60.3,67,30.12,10.0,SW,10.4,-,N/A,,Clear,230,2013-01-13 16:35:00
11:55 AM,72.9,60.1,64,30.11,10.0,SW,10.4,-,N/A,,Clear,230,2013-01-13 16:55:00
12:35 PM,73.4,59.4,61,30.10,10.0,SSW,6.9,-,N/A,,Clear,210,2013-01-13 17:35:00
1:15 PM,74.7,59.5,59,30.08,10.0,South,8.1,-,N/A,,Clear,190,2013-01-13 18:15:00
1:35 PM,75.4,59.2,57,30.07,10.0,SSW,9.2,-,N/A,,Scattered Clouds,210,2013-01-13 18:35:00
1:55 PM,75.9,58.8,55,30.07,10.0,SW,11.5,-,N/A,,Mostly Cloudy,220,2013-01-13 18:55:00
2:15 PM,75.9,58.8,55,30.07,10.0,SSW,8.1,-,N/A,,Scattered Clouds,210,2013-01-13 19:15:00
2:35 PM,74.8,58.6,57,30.07,10.0,SW,9.2,-,N/A,,Scattered Clouds,230,2013-01-13 19:35:00
2:55 PM,75.2,59.2,57,30.08,10.0,SSW,6.9,-,N/A,,Scattered Clouds,210,2013-01-13 19:55:00
3:15 PM,75.4,58.8,56,30.08,10.0,SSW,6.9,-,N/A,,Scattered Clouds,210,2013-01-13 20:15:00
3:35 PM,75.6,59.0,56,30.08,10.0,South,10.4,-,N/A,,Clear,180,2013-01-13 20:35:00
3:55 PM,74.7,59.0,58,30.08,10.0,South,8.1,-,N/A,,Clear,180,2013-01-13 20:55:00
4:15 PM,74.5,59.4,59,30.09,10.0,SSW,9.2,-,N/A,,Clear,200,2013-01-13 21:15:00
4:35 PM,73.4,59.9,63,30.09,10.0,South,5.8,-,N/A,,Clear,170,2013-01-13 21:35:00
4:55 PM,72.5,59.9,64,30.10,10.0,South,5.8,-,N/A,,Scattered Clouds,170,2013-01-13 21:55:00
5:15 PM,71.6,59.9,66,30.09,10.0,South,5.8,-,N/A,,Scattered Clouds,170,2013-01-13 22:15:00
5:35 PM,70.7,59.9,69,30.09,10.0,SSE,5.8,-,N/A,,Clear,160,2013-01-13 22:35:00
5:55 PM,69.8,59.9,71,30.09,10.0,South,5.8,-,N/A,,Clear,170,2013-01-13 22:55:00
6:15 PM,69.1,59.5,72,30.09,10.0,South,4.6,-,N/A,,Clear,170,2013-01-13 23:15:00
6:35 PM,68.2,59.4,73,30.09,10.0,South,5.8,-,N/A,,Clear,170,2013-01-13 23:35:00
6:55 PM,68.2,59.5,74,30.09,10.0,South,4.6,-,N/A,,Clear,170,2013-01-13 23:55:00
7:15 PM,67.3,59.4,76,30.09,10.0,South,5.8,-,N/A,,Clear,170,2013-01-14 00:15:00
7:35 PM,67.3,59.5,76,30.09,10.0,South,5.8,-,N/A,,Clear,170,2013-01-14 00:35:00
7:55 PM,66.9,59.4,77,30.09,10.0,South,4.6,-,N/A,,Clear,170,2013-01-14 00:55:00
8:15 PM,66.4,59.5,79,30.09,10.0,South,4.6,-,N/A,,Clear,180,2013-01-14 01:15:00
8:35 PM,65.7,59.5,81,30.09,10.0,South,5.8,-,N/A,,Clear,170,2013-01-14 01:35:00
8:55 PM,65.3,59.5,82,30.09,10.0,South,4.6,-,N/A,,Clear,180,2013-01-14 01:55:00
9:15 PM,65.3,59.9,83,30.10,10.0,South,5.8,-,N/A,,Clear,190,2013-01-14 02:15:00
9:35 PM,64.8,59.9,84,30.10,10.0,South,5.8,-,N/A,,Clear,180,2013-01-14 02:35:00
9:55 PM,64.6,59.9,85,30.10,10.0,South,6.9,-,N/A,,Clear,180,2013-01-14 02:55:00
10:15 PM,64.4,59.9,85,30.11,10.0,South,6.9,-,N/A,,Clear,180,2013-01-14 03:15:00
10:35 PM,64.0,59.9,86,30.11,10.0,South,6.9,-,N/A,,Clear,180,2013-01-14 03:35:00
10:55 PM,64.0,59.5,85,30.11,10.0,South,6.9,-,N/A,,Clear,180,2013-01-14 03:55:00
11:15 PM,63.9,59.4,85,30.11,10.0,South,8.1,-,N/A,,Clear,180,2013-01-14 04:15:00
11:35 PM,63.9,59.4,85,30.11,10.0,South,8.1,-,N/A,,Clear,180,2013-01-14 04:35:00
11:55 PM,63.7,59.0,85,30.10,10.0,South,8.1,-,N/A,,Clear,170,2013-01-14 04:55:00